GW2509 Weather Reports


time (UTC)temp
C
wind
direction
speed
KPH
gust
KPH
rain 1hr
cm
rain 24hr
cm
rain mn
cm
humidity
%
barometer
mb
20260905204926 32 287 8.0 11.3 0.00 0.00 0.00 60 1011.8
20260905204422 32 283 6.4 9.7 0.00 0.00 0.00 58 1012.0
20260905203920 32 277 8.0 9.7 0.00 0.00 0.00 56 1011.8
20260905203416 32 265 6.4 11.3 0.00 0.00 0.00 53 1011.9
20260905202912 32 269 8.0 11.3 0.00 0.00 0.00 52 1011.8
20260905202407 31 287 6.4 6.4 0.00 0.00 0.00 60 1011.9
20260905201903 30 292 3.2 3.2 0.00 0.00 0.00 67 1012.0
20260905201358 29 280 4.8 6.4 0.00 0.00 0.00 69 1012.1
20260905200857 30 316 3.2 11.3 0.00 0.00 0.00 68 1012.3
20260905200353 30 272 6.4 12.9 0.00 0.00 0.00 67 1012.2
20260905195851 31 291 8.0 11.3 0.00 0.00 0.00 66 1012.4
20260905195347 32 274 6.4 6.4 0.00 0.00 0.00 67 1012.3
20260905194842 32 338 3.2 4.8 0.00 0.00 0.00 65 1012.4
20260905194342 32 356 1.6 4.8 0.00 0.00 0.00 63 1012.3
20260905193841 32 280 4.8 6.4 0.00 0.00 0.00 61 1012.3
20260905193336 33 276 4.8 4.8 0.00 0.00 0.00 61 1012.6
20260905192832 33 271 6.4 9.7 0.00 0.00 0.00 60 1012.1
20260905192328 33 279 1.6 9.7 0.00 0.00 0.00 61 1012.3
20260905191827 33 206 3.2 9.7 0.00 0.00 0.00 59 1012.5
20260905191326 33 147 4.8 9.7 0.00 0.00 0.00 60 1012.5
20260905190825 33 160 3.2 4.8 0.00 0.00 0.00 64 1012.5
20260905190324 33 148 3.2 4.8 0.00 0.00 0.00 61 1012.4
20260905185823 33 173 3.2 6.4 0.00 0.00 0.00 59 1012.8
20260905185319 33 227 6.4 6.4 0.00 0.00 0.00 59 1012.8
20260905184818 33 245 1.6 3.2 0.00 0.00 0.00 60 1012.7
20260905184317 33 249 9.7 12.9 0.00 0.00 0.00 60 1012.9
20260905183816 33 273 6.4 9.7 0.00 0.00 0.00 61 1013.3
20260905183311 33 216 1.6 6.4 0.00 0.00 0.00 64 1013.2
20260905182806 32 205 3.2 6.4 0.00 0.00 0.00 63 1013.3
20260905182306 32 261 6.4 6.4 0.00 0.00 0.00 62 1013.2
20260905181801 32 225 6.4 6.4 0.00 0.00 0.00 63 1013.4
20260905181301 32 215 11.3 12.9 0.00 0.00 0.00 63 1013.3
20260905180800 32 206 4.8 9.7 0.00 0.00 0.00 62 1013.3
20260905180255 32 175 3.2 11.3 0.00 0.00 0.00 66 1013.4
20260905175755 32 181 3.2 6.4 0.00 0.00 0.00 63 1013.6
20260905175250 32 248 6.4 11.3 0.00 0.00 0.00 64 1013.6
20260905174745 31 161 4.8 11.3 0.00 0.00 0.00 63 1013.7
20260905174241 31 118 3.2 6.4 0.00 0.00 0.00 64 1013.8
20260905173737 31 171 6.4 6.4 0.00 0.00 0.00 66 1013.4
20260905173232 31 116 4.8 12.9 0.00 0.00 0.00 65 1013.5
20260905172727 31 166 4.8 9.7 0.00 0.00 0.00 67 1013.6
20260905172226 31 222 6.4 9.7 0.00 0.00 0.00 67 1013.7
20260905171722 31 200 6.4 6.4 0.00 0.00 0.00 65 1013.8
20260905171218 31 237 3.2 6.4 0.00 0.00 0.00 63 1013.9
20260905170715 31 134 6.4 9.7 0.00 0.00 0.00 66 1013.9
20260905170215 31 212 9.7 12.9 0.00 0.00 0.00 65 1014.1
20260905165715 30 146 3.2 6.4 0.00 0.00 0.00 64 1014.0
20260905165210 30 215 8.0 9.7 0.00 0.00 0.00 65 1014.0
20260905164705 30 213 3.2 4.8 0.00 0.00 0.00 66 1014.0
20260905164204 29 174 3.2 9.7 0.00 0.00 0.00 68 1013.9
20260905163700 29 132 6.4 9.7 0.00 0.00 0.00 67 1013.9
20260905163157 30 134 8.0 14.5 0.00 0.00 0.00 66 1013.8
20260905162653 30 154 6.4 9.7 0.00 0.00 0.00 68 1014.0
20260905162152 29 140 3.2 9.7 0.00 0.00 0.00 69 1013.9
20260905161648 28 134 11.3 16.1 0.00 0.00 0.00 69 1014.0
20260905161145 29 123 12.9 17.7 0.00 0.00 0.00 68 1013.9
20260905160644 29 128 17.7 17.7 0.00 0.00 0.00 66 1014.1
20260905160143 29 138 12.9 16.1 0.00 0.00 0.00 67 1013.9
20260905155638 28 142 12.9 16.1 0.00 0.00 0.00 67 1014.0
20260905155138 28 139 9.7 14.5 0.00 0.00 0.00 68 1014.2
20260905154637 28 133 9.7 12.9 0.00 0.00 0.00 70 1014.3
20260905154133 28 139 9.7 12.9 0.00 0.00 0.00 69 1014.1
20260905153629 28 166 11.3 12.9 0.00 0.00 0.00 68 1014.3
20260905153124 28 128 12.9 17.7 0.00 0.00 0.00 68 1014.2
20260905152619 28 141 9.7 12.9 0.00 0.00 0.00 72 1014.1
20260905152113 27 135 11.3 24.1 0.00 0.00 0.00 69 1014.0
20260905151609 27 128 9.7 16.1 0.00 0.00 0.00 73 1014.0
20260905151104 27 131 14.5 17.7 0.00 0.00 0.00 69 1014.2
20260905150559 27 149 9.7 17.7 0.00 0.00 0.00 70 1014.3
20260905150058 27 136 17.7 20.9 0.00 0.00 0.00 69 1014.5
20260905145556 27 151 17.7 22.5 0.00 0.00 0.00 70 1014.6
20260905145055 27 125 14.5 17.7 0.00 0.00 0.00 73 1014.4
20260905144551 27 123 17.7 22.5 0.00 0.00 0.00 73 1014.6
20260905144050 27 140 17.7 20.9 0.00 0.00 0.00 72 1014.5
20260905143549 27 125 12.9 16.1 0.00 0.00 0.00 74 1014.2
20260905143044 26 114 12.9 20.9 0.00 0.00 0.00 76 1014.3
20260905142543 26 149 12.9 17.7 0.00 0.00 0.00 76 1014.1
20260905142039 26 137 9.7 17.7 0.00 0.00 0.00 79 1014.2
20260905141538 26 131 12.9 20.9 0.00 0.00 0.00 79 1014.2
20260905141035 26 149 12.9 20.9 0.00 0.00 0.00 80 1014.0
20260905140535 26 156 14.5 20.9 0.00 0.00 0.00 80 1013.9
20260905140034 26 122 12.9 24.1 0.00 0.00 0.00 82 1014.1
20260905135531 26 133 14.5 24.1 0.00 0.00 0.00 83 1014.2
20260905135030 26 135 20.9 24.1 0.00 0.00 0.00 83 1014.2
20260905134525 25 125 17.7 22.5 0.00 0.00 0.00 84 1014.0
20260905134024 25 127 14.5 24.1 0.00 0.00 0.00 85 1014.2
20260905133520 25 104 16.1 20.9 0.00 0.00 0.00 86 1013.9
20260905133020 25 121 12.9 20.9 0.00 0.00 0.00 87 1014.1
20260905132519 25 114 14.5 22.5 0.00 0.00 0.00 87 1014.3
20260905132014 25 106 16.1 20.9 0.00 0.00 0.00 90 1014.2
20260905131515 24 118 12.9 17.7 0.00 0.00 0.00 92 1014.0
20260905131010 24 107 9.7 11.3 0.00 0.00 0.00 92 1014.0
20260905130509 24 120 1.6 3.2 0.00 0.00 0.00 90 1013.8
20260905130004 25 119 0.0 0.0 0.00 0.00 0.00 91 1013.7
20260905125458 25 119 0.0 0.0 0.00 0.00 0.00 89 1013.6
20260905124954 24 119 0.0 0.0 0.00 0.00 0.00 90 1013.7
20260905124451 24 119 0.0 0.0 0.00 0.00 0.00 92 1013.6
20260905123946 24 120 1.6 1.6 0.00 0.00 0.00 92 1013.8
20260905123442 24 103 3.2 3.2 0.00 0.00 0.00 92 1013.7
20260905122942 24 96 3.2 3.2 0.00 0.00 0.00 92 1013.7
20260905122443 24 129 3.2 3.2 0.00 0.00 0.00 92 1013.5
20260905121938 24 142 1.6 1.6 0.00 0.00 0.00 93 1013.4
20260905121433 23 143 1.6 1.6 0.00 0.00 0.00 93 1013.5
20260905120932 23 142 1.6 3.2 0.00 0.00 0.00 94 1013.5
20260905120427 23 199 0.0 0.0 0.00 0.00 0.00 95 1013.5
20260905115922 23 217 1.6 3.2 0.00 0.00 0.00 95 1013.2
20260905115421 23 213 4.8 4.8 0.00 0.00 0.00 95 1013.3
20260905114917 23 223 3.2 4.8 0.00 0.00 0.00 95 1013.4
20260905114416 23 212 3.2 3.2 0.00 0.00 0.00 95 1013.2
20260905113915 23 148 0.0 0.0 0.00 0.00 0.00 95 1013.3
20260905113411 23 89 0.0 0.0 0.00 0.00 0.00 95 1012.9
20260905112906 23 80 0.0 0.0 0.00 0.00 0.00 95 1013.2
20260905112401 22 76 6.4 6.4 0.00 0.00 0.00 95 1013.4
20260905111856 22 125 1.6 1.6 0.00 0.00 0.00 95 1013.0
20260905111356 23 84 3.2 1.6 0.00 0.00 0.00 95 1013.1
20260905110856 23 14 0.0 1.6 0.00 0.00 0.00 95 1013.2
20260905110350 23 13 0.0 1.6 0.00 0.00 0.00 95 1013.1
20260905105845 22 217 0.0 1.6 0.00 0.00 0.00 95 1012.9
20260905105345 23 217 0.0 1.6 0.00 0.00 0.00 95 1013.1
20260905104844 23 216 0.0 3.2 0.00 0.00 0.00 95 1013.2
20260905104341 23 49 0.0 0.0 0.00 0.00 0.00 95 1013.1
20260905103841 23 49 0.0 0.0 0.00 0.00 0.00 95 1013.1
20260905103336 23 50 0.0 0.0 0.00 0.00 0.00 95 1013.2
20260905102832 23 50 0.0 1.6 0.00 0.00 0.00 95 1013.2
20260905102329 23 57 4.8 4.8 0.00 0.00 0.00 94 1013.4
20260905101828 23 122 0.0 0.0 0.00 0.00 0.00 95 1013.2
20260905101327 23 122 0.0 0.0 0.00 0.00 0.00 95 1013.0
20260905100821 22 122 0.0 0.0 0.00 0.00 0.00 95 1012.9
20260905100318 23 122 0.0 0.0 0.00 0.00 0.00 94 1012.9
20260905095817 23 122 0.0 0.0 0.00 0.00 0.00 95 1013.1
20260905095316 23 122 0.0 0.0 0.00 0.00 0.00 95 1013.0
20260905094811 23 122 0.0 0.0 0.00 0.00 0.00 95 1013.2
20260905094307 23 122 1.6 1.6 0.00 0.00 0.00 95 1013.1
20260905093806 23 122 0.0 0.0 0.00 0.00 0.00 94 1013.2
20260905093302 23 122 0.0 0.0 0.00 0.00 0.00 94 1013.2
20260905092757 23 122 0.0 1.6 0.00 0.00 0.00 94 1013.3
20260905092253 23 122 1.6 1.6 0.00 0.00 0.00 94 1013.2
20260905091752 23 123 0.0 0.0 0.00 0.00 0.00 94 1012.9
20260905091247 23 123 0.0 0.0 0.00 0.00 0.00 94 1012.9
20260905090746 22 123 0.0 0.0 0.00 0.00 0.00 94 1013.0
20260905090242 22 123 0.0 1.6 0.00 0.00 0.00 93 1013.1
20260905085742 23 160 0.0 0.0 0.00 0.00 0.00 93 1012.8
20260905085241 23 176 0.0 0.0 0.00 0.00 0.00 93 1012.7
20260905084742 23 176 0.0 0.0 0.00 0.00 0.00 93 1012.8
20260905084241 23 176 0.0 0.0 0.00 0.00 0.00 93 1012.7
20260905083737 23 176 0.0 0.0 0.00 0.00 0.00 92 1012.7
20260905083232 23 176 0.0 0.0 0.00 0.00 0.00 92 1012.6
20260905082728 23 176 0.0 0.0 0.00 0.00 0.00 92 1012.6
20260905082223 23 176 0.0 0.0 0.00 0.00 0.00 93 1012.5
20260905081718 23 176 0.0 0.0 0.00 0.00 0.00 93 1012.6
20260905081213 23 176 0.0 0.0 0.00 0.00 0.00 93 1012.6
20260905080713 23 176 0.0 0.0 0.00 0.00 0.00 94 1012.6
20260905080212 23 176 0.0 0.0 0.00 0.00 0.00 94 1012.6
20260905075712 23 176 0.0 1.6 0.00 0.00 0.00 95 1012.5
20260905075211 23 153 0.0 1.6 0.00 0.00 0.00 95 1012.7
20260905074710 23 153 1.6 1.6 0.00 0.00 0.00 95 1012.5
20260905074206 23 135 0.0 0.0 0.00 0.00 0.00 95 1012.5
20260905073701 23 135 0.0 0.0 0.00 0.00 0.00 95 1012.7
20260905073157 23 135 0.0 0.0 0.00 0.00 0.00 95 1012.7
20260905072656 23 135 0.0 0.0 0.00 0.00 0.00 95 1012.7
20260905072152 23 135 0.0 0.0 0.00 0.00 0.00 95 1012.8
20260905071648 23 135 0.0 0.0 0.00 0.00 0.00 95 1012.6
20260905071144 23 135 0.0 0.0 0.00 0.00 0.00 95 1012.6
20260905070638 23 135 0.0 0.0 0.00 0.00 0.00 95 1012.8
20260905070135 23 135 0.0 0.0 0.00 0.00 0.00 94 1012.8
20260905065633 23 135 0.0 0.0 0.00 0.00 0.00 94 1012.8
20260905065127 23 135 0.0 0.0 0.00 0.00 0.00 95 1012.9
20260905064623 23 135 0.0 0.0 0.00 0.00 0.00 94 1013.0
20260905064118 23 135 0.0 0.0 0.00 0.00 0.00 94 1013.2
20260905063617 24 135 0.0 0.0 0.00 0.00 0.00 94 1013.0
20260905063114 24 135 0.0 0.0 0.00 0.00 0.00 94 1013.3
20260905062609 24 135 0.0 0.0 0.00 0.00 0.00 94 1013.2
20260905062108 23 135 0.0 0.0 0.00 0.00 0.00 93 1013.1
20260905061603 24 135 0.0 0.0 0.00 0.00 0.00 93 1013.2
20260905061103 24 135 0.0 0.0 0.00 0.00 0.00 92 1013.5
20260905060558 24 135 0.0 0.0 0.00 0.00 0.00 92 1013.2
20260905060054 25 135 0.0 0.0 0.00 0.00 0.00 92 1013.2
20260905055553 25 135 0.0 0.0 0.00 0.00 0.00 91 1013.2
20260905055048 25 135 0.0 0.0 0.00 0.00 0.00 90 1013.4
20260905054544 25 135 0.0 0.0 0.00 0.00 0.00 91 1013.3
20260905054039 25 135 0.0 0.0 0.00 0.00 0.00 91 1013.6
20260905053538 25 135 0.0 0.0 0.00 0.00 0.00 91 1013.3
20260905053034 25 135 0.0 0.0 0.00 0.00 0.00 91 1013.3
20260905052533 25 135 0.0 0.0 0.00 0.00 0.00 91 1013.4
20260905052028 25 135 0.0 0.0 0.00 0.00 0.00 91 1013.4
20260905051524 25 135 0.0 0.0 0.00 0.00 0.00 91 1013.3
20260905051021 25 135 0.0 0.0 0.00 0.00 0.00 91 1013.4
20260905050516 25 135 1.6 1.6 0.00 0.00 0.00 92 1013.3
20260905050013 25 135 0.0 0.0 0.00 0.00 0.00 92 1013.3
20260905045507 25 135 0.0 1.6 0.00 0.00 0.00 92 1013.6
20260905045002 25 140 3.2 3.2 0.00 0.00 0.00 93 1013.5
20260905044457 25 141 3.2 3.2 0.00 0.00 0.00 94 1013.4
20260905043956 25 144 1.6 3.2 0.00 0.00 0.00 95 1013.6
20260905043456 25 144 3.2 3.2 0.00 0.00 0.00 95 1013.5
20260905042951 24 147 3.2 3.2 0.00 0.00 0.00 95 1013.4
20260905042450 25 178 0.0 0.0 0.00 0.00 0.00 96 1013.4
20260905041946 25 178 0.0 0.0 0.00 0.00 0.00 96 1013.4
20260905041441 25 140 0.0 0.0 0.00 0.00 0.00 96 1013.5
20260905040937 25 140 1.6 1.6 0.00 0.00 0.00 96 1013.7
20260905040436 25 140 0.0 0.0 0.00 0.00 0.00 96 1013.7
20260905035935 25 140 0.0 0.0 0.00 0.00 0.00 96 1013.7
20260905035430 26 140 0.0 0.0 0.00 0.00 0.00 96 1013.7
20260905034928 25 140 0.0 0.0 0.00 0.00 0.00 96 1013.8
20260905034422 25 140 0.0 0.0 0.00 0.00 0.00 95 1013.7
20260905033922 25 140 0.0 0.0 0.00 0.00 0.00 95 1013.7
20260905033416 26 140 0.0 0.0 0.00 0.00 0.00 95 1014.0
20260905032916 26 140 0.0 0.0 0.00 0.00 0.00 95 1013.9
20260905032412 26 140 0.0 0.0 0.00 0.00 0.00 95 1013.8
20260905031907 26 140 0.0 0.0 0.00 0.00 0.00 95 1014.0
20260905031403 26 140 0.0 0.0 0.00 0.00 0.00 95 1013.9
20260905030858 26 140 0.0 0.0 0.00 0.00 0.00 95 1013.8
20260905030354 26 140 0.0 0.0 0.00 0.00 0.00 94 1013.8
20260905025852 26 140 0.0 0.0 0.00 0.00 0.00 94 1013.7
20260905025348 26 140 0.0 0.0 0.00 0.00 0.00 94 1013.8
20260905024844 26 140 0.0 0.0 0.00 0.00 0.00 95 1013.8
20260905024344 26 140 0.0 0.0 0.00 0.00 0.00 95 1013.8
20260905023840 26 140 0.0 0.0 0.00 0.00 0.00 94 1013.7
20260905023335 26 140 0.0 0.0 0.00 0.00 0.00 94 1013.7
20260905022833 26 140 0.0 0.0 0.00 0.00 0.00 94 1013.6
20260905022329 26 140 0.0 0.0 0.00 0.00 0.00 94 1013.5
20260905021824 26 140 1.6 1.6 0.00 0.00 0.00 93 1013.6
20260905021319 27 140 3.2 1.6 0.00 0.00 0.00 93 1013.7
20260905020814 27 140 1.6 1.6 0.00 0.00 0.00 94 1013.7
20260905020309 27 140 0.0 0.0 0.00 0.00 0.00 94 1013.7
20260905015808 27 140 0.0 0.0 0.00 0.00 0.00 93 1013.5
20260905015306 27 140 0.0 0.0 0.00 0.00 0.00 94 1013.6
20260905014801 26 140 0.0 0.0 0.00 0.00 0.00 93 1013.7
20260905014257 26 140 0.0 0.0 0.00 0.00 0.00 93 1013.4
20260905013752 26 140 1.6 3.2 0.00 0.00 0.00 93 1013.3
20260905013248 26 139 3.2 3.2 0.00 0.00 0.00 92 1013.4
20260905012743 26 146 3.2 3.2 0.00 0.00 0.00 91 1013.1
20260905012239 27 157 1.6 1.6 0.00 0.00 0.00 90 1013.4
20260905011736 27 158 0.0 0.0 0.00 0.00 0.00 89 1013.4
20260905011231 27 158 1.6 1.6 0.00 0.00 0.00 87 1013.4
20260905010731 27 158 0.0 0.0 0.00 0.00 0.00 85 1013.5
20260905010226 28 158 0.0 0.0 0.00 0.00 0.00 83 1013.3
20260905005723 28 158 0.0 0.0 0.00 0.00 0.00 83 1013.3
20260905005219 28 158 0.0 0.0 0.00 0.00 0.00 83 1013.2
20260905004713 28 158 0.0 0.0 0.00 0.00 0.00 82 1013.2
20260905004208 28 158 0.0 0.0 0.00 0.00 0.00 82 1013.1
20260905003703 28 158 0.0 0.0 0.00 0.00 0.00 82 1012.9
20260905003159 28 158 1.6 1.6 0.00 0.00 0.00 83 1012.9
20260905002654 28 117 3.2 3.2 0.00 0.00 0.00 83 1013.0
20260905002154 28 133 0.0 0.0 0.00 0.00 0.00 84 1012.9
20260905001649 28 133 0.0 1.6 0.00 0.00 0.00 84 1013.1
20260905001148 29 145 1.6 1.6 0.00 0.00 0.00 84 1013.0
20260905000644 30 146 1.6 1.6 0.00 0.00 0.00 82 1013.0
20260905000140 30 147 3.2 3.2 0.00 0.00 0.00 80 1013.1
20260904235639 31 157 1.6 1.6 0.00 0.00 0.00 80 1013.2
20260904235139 31 157 3.2 3.2 0.00 0.00 0.00 76 1012.9
20260904234634 32 205 0.0 0.0 0.00 0.00 0.00 74 1013.1
20260904234130 32 206 0.0 0.0 0.00 0.00 0.00 71 1013.0
20260904233625 33 207 0.0 0.0 0.00 0.00 0.00 63 1013.1
20260904233121 33 208 0.0 0.0 0.00 0.00 0.00 60 1012.9
20260904232618 33 208 1.6 1.6 0.00 0.00 0.00 60 1013.3
20260904232114 33 208 1.6 1.6 0.00 0.00 0.00 58 1013.1
20260904231609 33 209 1.6 1.6 0.00 0.00 0.00 58 1013.2
20260904231109 34 218 3.2 3.2 0.00 0.00 0.00 57 1012.9
20260904230608 34 226 1.6 3.2 0.00 0.00 0.00 58 1012.9
20260904230104 34 235 1.6 3.2 0.00 0.00 0.00 57 1012.8
20260904225601 34 238 1.6 3.2 0.00 0.00 0.00 56 1012.9
20260904225056 34 208 4.8 4.8 0.00 0.00 0.00 55 1013.0
20260904224551 34 220 3.2 4.8 0.00 0.00 0.00 54 1013.0
20260904224046 34 227 4.8 6.4 0.00 0.00 0.00 54 1012.8
20260904223545 35 222 4.8 4.8 0.00 0.00 0.00 54 1012.9
20260904223041 34 272 3.2 4.8 0.00 0.00 0.00 54 1013.1
20260904222536 34 256 3.2 6.4 0.00 0.00 0.00 54 1012.8
20260904222031 35 218 6.4 9.7 0.00 0.00 0.00 53 1012.9
20260904221526 35 216 4.8 11.3 0.00 0.00 0.00 54 1012.8
20260904221021 35 232 8.0 9.7 0.00 0.00 0.00 51 1013.1
20260904220520 35 238 4.8 9.7 0.00 0.00 0.00 53 1012.9
20260904220016 35 282 8.0 9.7 0.00 0.00 0.00 51 1013.0
20260904215516 35 237 6.4 11.3 0.00 0.00 0.00 52 1013.1
20260904215012 35 235 4.8 6.4 0.00 0.00 0.00 53 1013.1
20260904214507 35 240 8.0 9.7 0.00 0.00 0.00 50 1013.1
20260904214002 35 251 6.4 11.3 0.00 0.00 0.00 51 1013.2
20260904213500 35 254 6.4 9.7 0.00 0.00 0.00 49 1013.3
20260904212957 35 212 9.7 12.9 0.00 0.00 0.00 49 1013.2
20260904212456 35 215 8.0 9.7 0.00 0.00 0.00 50 1013.2
20260904211952 35 239 8.0 12.9 0.00 0.00 0.00 52 1013.1
20260904211452 35 236 6.4 14.5 0.00 0.00 0.00 51 1013.3
20260904210948 35 210 8.0 11.3 0.00 0.00 0.00 50 1013.3
20260904210446 35 218 6.4 9.7 0.00 0.00 0.00 51 1013.2
20260904205942 35 216 9.7 12.9 0.00 0.00 0.00 51 1013.3
20260904205437 35 252 9.7 12.9 0.00 0.00 0.00 51 1013.5